(192140) = 2001 FJ116 = 2006 FX4 = 2007 LT9 = 2006 EV26

Discovered at Kitt Peak on 2006-03-03 by Spacewatch.

Orbit

Orbit type: Main Belt

Note: WebGL enabled browser required.

epoch2024-03-31.0
epoch JD2460400.5
perihelion date2020-06-26.65402
perihelion JD2459027.15402
argument of perihelion (°)270.36552
ascending node (°)161.33919
inclination (°)3.29267
eccentricity0.0636361
perihelion distance (AU)2.8024554
Tisserand w.r.t. Jupiter3.2
ΔV w.r.t. Earth (km/sec)10.5
semimajor axis (AU)2.9929128
mean anomaly (°)261.42235
mean daily motion (°/day)0.19035430
aphelion distance (AU)3.183
period (years)5.18
P-vector [x]0.31338611
P-vector [y]0.89251601
P-vector [z]0.32435214
Q-vector [x]-0.94944795
Q-vector [y]0.28787415
Q-vector [z]0.12520809
absolute magnitude15.36
phase slope0.15
uncertainty0
referenceMPEC 2024-E02
observations used734
oppositions16
arc length (days)8657
first opposition used1998
last opposition used2022
residual rms (arc-secs)0.73
perturbers coarse indicatorM-v
perturbers precise indicator003Ek
first observation date used1998-09-12.0
last observation date used2022-05-26.0
computer nameMPCLINUX
JD of orbit computation2456966.786496
perihelion JD uncertainty (days)2.1824E-04
argument of perihelion uncertainty (°)9.7922E-05
ascending node uncertainty (°)8.8036E-05
inclination uncertainty (°)4.7825E-06
eccentricity uncertainty 4.6628E-08
perihelion distance uncertainty (AU)1.4831E-07
Minimum Orbit Intersection Distances (in AU)
for orbit epoch: 2460400.5, reference: E2024-E02
Mercury2.49596
Venus2.08273
Earth1.81982
Mars1.23225
Jupiter1.99619
Saturn6.22982
Uranus15.4205
Neptune26.9586

Observations

752 total observations over interval: 1998 09 12.39897 – 2022 05 26.344237
These data are available for download (format description).

Date (UT) J2000 RA J2000 Dec Magn Location Ref
1998 09 12.39897 23 43 09.57 -02 53 38.4 19.3 V 691 – Steward Observatory, Kitt Peak-Spacewatch MPS 210723
1998 09 12.41988 23 43 08.63 -02 53 45.8 19.3 V 691 – Steward Observatory, Kitt Peak-Spacewatch MPS 210723
1998 09 12.44131 23 43 07.67 -02 53 53.0 19.4 V 691 – Steward Observatory, Kitt Peak-Spacewatch MPS 210723
2001 03 19.27563 12 08 59.29 +00 45 16.7 19.7 V 691 – Steward Observatory, Kitt Peak-Spacewatch MPS 28478
2001 03 19.29692 12 08 58.31 +00 45 24.6 19.7 V 691 – Steward Observatory, Kitt Peak-Spacewatch MPS 28478
2001 03 19.31907 12 08 57.30 +00 45 32.0 20.0 V 691 – Steward Observatory, Kitt Peak-Spacewatch MPS 28478
2001 03 20.42407 12 08 07.79 +00 51 56.9 20.4   608 – Haleakala-AMOS MPS 28478
2001 03 20.43540 12 08 07.27 +00 52 01.8 19.6   608 – Haleakala-AMOS MPS 28478
2001 03 20.44603 12 08 06.79 +00 52 04.8 20.5   608 – Haleakala-AMOS MPS 28478
2005 12 04.49955 11 13 23.88 +04 09 15.0 20.8 V 691 – Steward Observatory, Kitt Peak-Spacewatch MPS 210723
2005 12 04.51453 11 13 24.57 +04 09 11.0 20.7 V 691 – Steward Observatory, Kitt Peak-Spacewatch MPS 210723
2005 12 04.52937 11 13 25.27 +04 09 06.6 21.1 V 691 – Steward Observatory, Kitt Peak-Spacewatch MPS 210723
2006 01 28.39174 11 30 07.95 +02 58 44.5 20.0 V G96 – Mt. Lemmon Survey MPS 210723
2006 01 28.39789 11 30 07.84 +02 58 45.6 19.9 V G96 – Mt. Lemmon Survey MPS 210723
2006 01 28.40462 11 30 07.74 +02 58 46.8 20.0 V G96 – Mt. Lemmon Survey MPS 210723
2006 01 28.41076 11 30 07.63 +02 58 47.8 19.9 V G96 – Mt. Lemmon Survey MPS 210723
2006 02 06.42326 11 26 51.03 +03 28 15.4 19.8 V G96 – Mt. Lemmon Survey MPS 210723
2006 02 06.43060 11 26 50.82 +03 28 17.5 20.1 V G96 – Mt. Lemmon Survey MPS 210723
2006 02 06.43793 11 26 50.60 +03 28 19.2 20.1 V G96 – Mt. Lemmon Survey MPS 210723
2006 02 06.44540 11 26 50.38 +03 28 20.7 20.1 V G96 – Mt. Lemmon Survey MPS 210723
2006 02 21.38159 11 18 09.90 +04 38 54.8 19.7 V G96 – Mt. Lemmon Survey MPS 210723
2006 02 21.38974 11 18 09.57 +04 38 57.4 19.8 V G96 – Mt. Lemmon Survey MPS 210723
2006 02 21.39799 11 18 09.21 +04 39 00.1 19.7 V G96 – Mt. Lemmon Survey MPS 210723
2006 03 03.22178 11 10 59.94 +05 34 37.3   691 – Steward Observatory, Kitt Peak-Spacewatch MPS 166411
2006 03 03.23910 11 10 59.08 +05 34 44.8   691 – Steward Observatory, Kitt Peak-Spacewatch MPS 166411
2006 03 03.25645 11 10 58.26 +05 34 50.9   691 – Steward Observatory, Kitt Peak-Spacewatch MPS 166411
2006 03 05.34570 11 09 23.01 +05 46 59.7 19.6   704 – Lincoln Laboratory ETS, New Mexico MPS 166411
2006 03 05.35712 11 09 22.44 +05 47 05.1 19.3   704 – Lincoln Laboratory ETS, New Mexico MPS 166411
2006 03 05.36855 11 09 21.81 +05 47 08.5 19.0   704 – Lincoln Laboratory ETS, New Mexico MPS 166411
2006 03 05.38000 11 09 21.30 +05 47 12.8 19.7   704 – Lincoln Laboratory ETS, New Mexico MPS 166411
2006 03 06.37045 11 08 35.98 +05 52 58.7 19.5 V G96 – Mt. Lemmon Survey MPS 166411
2006 03 06.37465 11 08 35.80 +05 53 00.3 19.1 V G96 – Mt. Lemmon Survey MPS 166411
2006 03 06.37888 11 08 35.59 +05 53 01.7 19.4 V G96 – Mt. Lemmon Survey MPS 166411
2006 03 06.38300 11 08 35.41 +05 53 03.1 19.1 V G96 – Mt. Lemmon Survey MPS 166411
2006 03 23.27891 10 56 21.04 +07 25 48.7 19.9 V G96 – Mt. Lemmon Survey MPS 167229
2006 03 23.28644 10 56 20.72 +07 25 50.8 20.0 V G96 – Mt. Lemmon Survey MPS 167229
2006 03 23.29385 10 56 20.43 +07 25 53.0 20.0 V G96 – Mt. Lemmon Survey MPS 167229
2006 03 23.30130 10 56 20.11 +07 25 55.2 19.6 V G96 – Mt. Lemmon Survey MPS 167229
2006 03 24.23890 10 55 43.96 +07 30 29.7 20.0 V G96 – Mt. Lemmon Survey MPS 167229
2006 03 24.24472 10 55 43.75 +07 30 31.3 19.8 V G96 – Mt. Lemmon Survey MPS 167229
2006 03 24.25061 10 55 43.50 +07 30 32.7 19.7 V G96 – Mt. Lemmon Survey MPS 167229
2006 03 24.25635 10 55 43.28 +07 30 34.2 19.9 V G96 – Mt. Lemmon Survey MPS 167229
2006 04 07.16007 10 48 24.40 +08 26 47.1 20.0 V G96 – Mt. Lemmon Survey MPS 210723
2006 04 07.16556 10 48 24.26 +08 26 48.3 20.1 V G96 – Mt. Lemmon Survey MPS 210723
2006 04 07.17105 10 48 24.12 +08 26 49.2 20.2 V G96 – Mt. Lemmon Survey MPS 210723
2006 04 07.17646 10 48 23.97 +08 26 50.2 20.3 V G96 – Mt. Lemmon Survey MPS 210723
2006 04 07.21440 10 48 23.00 +08 26 57.4 19.7 V G96 – Mt. Lemmon Survey MPS 210723
2006 04 07.21840 10 48 22.89 +08 26 58.3 20.3 V G96 – Mt. Lemmon Survey MPS 210723
2006 04 07.22243 10 48 22.82 +08 26 59.0 20.4 V G96 – Mt. Lemmon Survey MPS 210723
2006 04 07.22651 10 48 22.71 +08 27 00.1 20.2 V G96 – Mt. Lemmon Survey MPS 210723
2006 05 25.19821 10 52 51.99 +08 24 08.2 21.2 V G96 – Mt. Lemmon Survey MPS 210723
2006 05 25.20268 10 52 52.17 +08 24 06.7 21.2 V G96 – Mt. Lemmon Survey MPS 210723
2006 05 25.20734 10 52 52.28 +08 24 06.4 21.1 V G96 – Mt. Lemmon Survey MPS 210723
2006 05 25.21184 10 52 52.42 +08 24 05.7 21.3 V G96 – Mt. Lemmon Survey MPS 210723
2007 05 10.42502 16 22 56.46 -16 50 15.2 20.2 V G96 – Mt. Lemmon Survey MPS 210723
2007 05 10.43100 16 22 56.20 -16 50 13.9 19.4 V G96 – Mt. Lemmon Survey MPS 210723
2007 05 10.43706 16 22 55.92 -16 50 13.3 19.7 V G96 – Mt. Lemmon Survey MPS 210723
2007 05 10.44303 16 22 55.63 -16 50 12.5 19.6 V G96 – Mt. Lemmon Survey MPS 210723
2007 05 26.40979 16 10 15.60 -16 11 15.9 18.9 V G96 – Mt. Lemmon Survey MPS 210749
2007 05 26.41728 16 10 15.27 -16 11 15.7 18.6 V G96 – Mt. Lemmon Survey MPS 210749
2007 05 26.42466 16 10 14.84 -16 11 14.5 18.6 V G96 – Mt. Lemmon Survey MPS 210749
2007 05 26.43222 16 10 14.37 -16 11 13.4 18.3 V G96 – Mt. Lemmon Survey MPS 210749
2007 06 08.34658 15 59 56.53 -15 44 13.0 20.0 V 691 – Steward Observatory, Kitt Peak-Spacewatch MPS 210749
2007 06 08.36712 15 59 55.54 -15 44 10.5 19.9 V 691 – Steward Observatory, Kitt Peak-Spacewatch MPS 210749
2007 06 08.38471 15 59 54.74 -15 44 08.8 20.1 V 691 – Steward Observatory, Kitt Peak-Spacewatch MPS 210749
2007 06 13.35336 15 56 19.39 -15 35 54.9 20.0 V 691 – Steward Observatory, Kitt Peak-Spacewatch MPS 210749
2007 06 13.37096 15 56 18.63 -15 35 53.5 20.1 V 691 – Steward Observatory, Kitt Peak-Spacewatch MPS 210749
2007 06 13.38857 15 56 17.89 -15 35 51.7 19.8 V 691 – Steward Observatory, Kitt Peak-Spacewatch MPS 210749
2007 06 17.30389 15 53 42.32 -15 30 29.4 20.5 V 691 – Steward Observatory, Kitt Peak-Spacewatch MPS 211070
2007 06 17.32150 15 53 41.61 -15 30 28.1 20.4 V 691 – Steward Observatory, Kitt Peak-Spacewatch MPS 211070
2007 06 17.33913 15 53 40.96 -15 30 26.4 20.2 V 691 – Steward Observatory, Kitt Peak-Spacewatch MPS 211070
2008 07 01.41632 21 58 01.55 -10 13 38.3   691 – Steward Observatory, Kitt Peak-Spacewatch MPS 252044
2008 07 01.43392 21 58 01.36 -10 13 39.4   691 – Steward Observatory, Kitt Peak-Spacewatch MPS 252044
2008 07 01.45154 21 58 01.15 -10 13 40.6   691 – Steward Observatory, Kitt Peak-Spacewatch MPS 252044
2008 08 24.20570 21 26 39.30 -13 28 01.7 19.6   704 – Lincoln Laboratory ETS, New Mexico MPS 255898
2008 08 24.23178 21 26 38.23 -13 28 10.7 20.0   704 – Lincoln Laboratory ETS, New Mexico MPS 255898
2008 08 24.24480 21 26 37.63 -13 28 15.2 20.3   704 – Lincoln Laboratory ETS, New Mexico MPS 255898
2008 08 24.25799 21 26 36.91 -13 28 17.7 20.3   704 – Lincoln Laboratory ETS, New Mexico MPS 255898
2008 09 06.19860 21 17 59.78 -14 23 36.0 19.9 V G96 – Mt. Lemmon Survey MPS 255898
2008 09 06.20287 21 17 59.64 -14 23 37.0 19.8 V G96 – Mt. Lemmon Survey MPS 255898
2008 09 06.20715 21 17 59.49 -14 23 38.0 20.3 V G96 – Mt. Lemmon Survey MPS 255898
2008 09 06.21143 21 17 59.35 -14 23 38.9 19.8 V G96 – Mt. Lemmon Survey MPS 255898
2008 10 21.12546 21 13 14.19 -15 35 12.9 20.8 V G96 – Mt. Lemmon Survey MPS 261218
2008 10 21.13043 21 13 14.34 -15 35 12.7 21.4 V G96 – Mt. Lemmon Survey MPS 261218
2008 10 21.13536 21 13 14.44 -15 35 12.4 20.8 V G96 – Mt. Lemmon Survey MPS 261218
2008 10 21.14029 21 13 14.52 -15 35 11.9 20.6 V G96 – Mt. Lemmon Survey MPS 261218
2009 10 19.97527 03 50 00.13 +15 34 20.0 18.3 R 106 – Crni Vrh MPS 300472
2009 10 19.98673 03 49 59.85 +15 34 19.2 18.6 R 106 – Crni Vrh MPS 300472
2009 10 19.99820 03 49 59.45 +15 34 16.0 18.9 R 106 – Crni Vrh MPS 300472
2009 10 20.00969 03 49 59.14 +15 34 14.4 18.7 R 106 – Crni Vrh MPS 300472
